This is the latest recevied weather packets stored in our database for station/object KB1FFS. If no packets are shown the sender has not sent any weather packets the latest 1 day(s).
| Time | Temp. | Humidity | Pressure | Rain* | Wind** | Luminosity | Snow |
|---|---|---|---|---|---|---|---|
| 1777987328 | 22.78° C | 81% | 1005.2 hPa | 0 mm | 1.34 m/s, 102° | 91 W/m² | - |
| 1777987025 | 22.78° C | 81% | 1005.2 hPa | 0 mm | 1.34 m/s, 38° | 95 W/m² | - |
| 1777986723 | 22.22° C | 81% | 1005.2 hPa | 0 mm | 0.89 m/s, 80° | 79 W/m² | - |
| 1777986420 | 22.22° C | 82% | 1005 hPa | 0 mm | 0.89 m/s, 349° | 72 W/m² | - |
| 1777986119 | 22.22° C | 82% | 1005 hPa | 0 mm | 0.89 m/s, 17° | 61 W/m² | - |
| 1777985815 | 22.22° C | 83% | 1005.3 hPa | 0 mm | 0.89 m/s, 358° | 61 W/m² | - |
| 1777985512 | 22.22° C | 83% | 1005 hPa | 0 mm | 1.34 m/s, 17° | 51 W/m² | - |
| 1777985208 | 21.67° C | 83% | 1005.5 hPa | 0 mm | 1.34 m/s, 55° | 52 W/m² | - |
| 1777984905 | 21.67° C | 84% | 1005.1 hPa | 0 mm | 0 m/s | 43 W/m² | - |
| 1777984601 | 21.67° C | 84% | 1004.9 hPa | 0 mm | 0.89 m/s, 116° | 42 W/m² | - |
| 1777984298 | 21.67° C | 84% | 1004.9 hPa | 0 mm | 0 m/s | 30 W/m² | - |
| 1777983994 | 21.67° C | 84% | 1004.9 hPa | 0 mm | 0.45 m/s, 55° | 28 W/m² | - |
| 1777983692 | 21.67° C | 85% | 1004.9 hPa | 0 mm | 0.45 m/s, 92° | 25 W/m² | - |
| 1777983388 | 21.67° C | 85% | 1004.8 hPa | 0 mm | 0.89 m/s, 115° | 23 W/m² | - |
| 1777983085 | 21.67° C | 85% | 1004.8 hPa | 0 mm | 0.45 m/s, 110° | 19 W/m² | - |
| 1777982781 | 21.11° C | 85% | 1004.7 hPa | 0 mm | 0.45 m/s, 122° | 13 W/m² | - |
| 1777982477 | 21.11° C | 85% | 1004.6 hPa | 0 mm | 0 m/s | 11 W/m² | - |
| 1777982172 | 21.11° C | 85% | 1004.4 hPa | 0 mm | 0.89 m/s, 100° | 7 W/m² | - |
| 1777981869 | 21.11° C | 85% | 1004.7 hPa | 0 mm | 0 m/s | 5 W/m² | - |
| 1777981566 | 21.11° C | 85% | 1004.6 hPa | 0 mm | 0.89 m/s, 16° | 3 W/m² | - |
| 1777981263 | 21.11° C | 85% | 1004.6 hPa | 0 mm | 0.45 m/s, 123° | 2 W/m² | - |
| 1777980959 | 21.11° C | 85% | 1004.4 hPa | 0 mm | 0.89 m/s, 60° | 1 W/m² | - |
| 1777980656 | 21.11° C | 85% | 1004.4 hPa | 0 mm | 1.34 m/s, 43° | 0 W/m² | - |
| 1777980353 | 21.11° C | 85% | 1004.2 hPa | 0 mm | 0.89 m/s, 31° | 0 W/m² | - |
| 1777980051 | 21.11° C | 85% | 1004.3 hPa | 0 mm | 0.89 m/s, 147° | 0 W/m² | - |
* Rain latest hour (hover to see other rain measurements)
** Current wind speed in m/s (hover to see current wind gust speed)